GW0552 Weather Reports


Display with metric or nautical units.
time (UTC)temp
F
wind
direction
speed
MPH
gust
MPH
rain 1hr
in
rain 24hr
in
rain mn
in
humidity
%
barometer
mb
20260507001509 56 130 1.0 1.0 0.00 0.50 0.50 97 1008.8
20260507001007 56 145 1.0 1.0 0.00 0.50 0.50 97 1008.5
20260507000503 57 108 2.0 2.0 0.00 0.50 0.50 98 1007.6
20260506235958 57 130 3.0 3.0 0.00 0.50 0.50 97 1008.0
20260506235456 57 136 1.0 2.0 0.00 0.50 0.50 97 1008.2
20260506234952 57 121 2.0 2.0 0.00 0.50 0.50 97 1008.2
20260506234449 57 102 3.0 3.0 0.00 0.50 0.50 97 1008.6
20260506233947 57 128 0.0 0.0 0.00 0.50 0.50 96 1008.8
20260506233443 57 131 1.0 1.0 0.00 0.50 0.50 96 1008.4
20260506232939 57 132 1.0 1.0 0.00 0.50 0.50 96 1008.4
20260506232436 57 120 1.0 1.0 0.00 0.50 0.50 96 1008.1
20260506231931 57 129 3.0 3.0 0.00 0.50 0.50 96 1008.0
20260506231429 58 126 1.0 2.0 0.00 0.50 0.50 95 1007.9
20260506230926 57 128 0.0 0.0 0.00 0.50 0.50 95 1008.0
20260506230422 57 128 0.0 1.0 0.00 0.50 0.50 95 1008.2
20260506225919 57 119 1.0 1.0 0.00 0.50 0.50 94 1008.0
20260506225416 57 121 0.0 0.0 0.00 0.50 0.50 94 1008.5
20260506224908 58 129 1.0 1.0 0.00 0.50 0.50 94 1008.8
20260506224405 58 125 1.0 2.0 0.00 0.50 0.50 94 1008.5
20260506223901 58 135 2.0 2.0 0.00 0.50 0.50 94 1008.6
20260506223356 58 125 0.0 0.0 0.00 0.50 0.50 94 1009.1
20260506222854 58 127 0.0 0.0 0.00 0.50 0.50 93 1008.8
20260506222350 59 131 0.0 0.0 0.00 0.50 0.50 93 1008.7
20260506221848 59 123 0.0 0.0 0.00 0.50 0.50 93 1008.6
20260506221345 59 123 0.0 0.0 0.00 0.50 0.50 93 1008.3
20260506220842 59 117 1.0 1.0 0.00 0.50 0.50 93 1008.2
20260506220338 59 119 0.0 1.0 0.00 0.50 0.50 93 1008.3
20260506215835 59 122 0.0 1.0 0.00 0.50 0.50 93 1008.3
20260506215330 59 133 0.0 0.0 0.00 0.50 0.50 93 1008.2
20260506214827 58 134 0.0 0.0 0.00 0.50 0.50 92 1007.9
20260506214323 58 131 0.0 0.0 0.00 0.50 0.50 91 1008.1
20260506213822 58 134 0.0 0.0 0.00 0.50 0.50 92 1008.0
20260506213319 58 122 1.0 1.0 0.00 0.50 0.50 91 1007.9
20260506212816 58 126 1.0 1.0 0.00 0.50 0.50 91 1008.1
20260506212312 59 124 0.0 1.0 0.00 0.50 0.50 91 1007.9
20260506211807 59 136 0.0 1.0 0.00 0.50 0.50 91 1007.9
20260506211303 59 136 2.0 2.0 0.00 0.50 0.50 91 1008.0
20260506210801 59 116 4.0 5.0 0.00 0.50 0.50 91 1008.0
20260506210257 59 122 1.0 1.0 0.00 0.50 0.50 90 1007.9
20260506205754 59 132 0.0 0.0 0.00 0.50 0.50 91 1007.9
20260506205250 59 129 0.0 0.0 0.00 0.50 0.50 91 1007.9
20260506204747 59 128 1.0 1.0 0.00 0.50 0.50 91 1008.0
20260506204245 59 135 0.0 0.0 0.00 0.50 0.50 91 1008.2
20260506203742 59 136 2.0 2.0 0.00 0.50 0.50 89 1007.8
20260506203239 59 121 3.0 3.0 0.00 0.50 0.50 90 1007.9
20260506202736 59 120 2.0 2.0 0.00 0.50 0.50 91 1007.9
20260506202233 58 126 2.0 2.0 0.00 0.50 0.50 90 1007.9
20260506201730 58 134 0.0 0.0 0.00 0.50 0.50 93 1008.0
20260506201226 58 144 2.0 3.0 0.00 0.50 0.50 93 1007.9
20260506200723 58 131 0.0 0.0 0.00 0.50 0.50 94 1007.9
20260506200220 57 120 0.0 0.0 0.00 0.50 0.50 94 1008.1
20260506195716 58 131 1.0 2.0 0.00 0.50 0.50 93 1008.1
20260506195213 58 134 1.0 1.0 0.00 0.50 0.50 93 1008.0
20260506194710 58 126 0.0 1.0 0.00 0.50 0.50 93 1008.0
20260506194207 57 119 1.0 2.0 0.00 0.50 0.50 92 1007.8
20260506193705 58 125 0.0 0.0 0.00 0.50 0.50 94 1007.9
20260506193201 57 136 0.0 0.0 0.00 0.50 0.50 92 1007.9
20260506192658 57 134 0.0 1.0 0.00 0.50 0.50 93 1007.9
20260506192154 57 119 1.0 1.0 0.00 0.50 0.50 94 1007.7
20260506191651 57 129 0.0 0.0 0.00 0.50 0.50 94 1007.8
20260506191147 57 134 1.0 1.0 0.00 0.50 0.50 94 1007.8
20260506190645 57 99 3.0 3.0 0.00 0.50 0.50 94 1007.9
20260506190141 57 115 1.0 1.0 0.00 0.50 0.50 95 1007.8
20260506185638 56 151 2.0 3.0 0.00 0.50 0.50 94 1007.8
20260506185134 57 336 3.0 3.0 0.00 0.50 0.50 95 1007.8
20260506184632 57 28 2.0 2.0 0.00 0.50 0.50 96 1008.1
20260506184129 56 123 0.0 0.0 0.00 0.50 0.50 96 1007.9
20260506183626 56 134 0.0 1.0 0.00 0.50 0.50 97 1008.0
20260506183122 55 120 1.0 2.0 0.00 0.50 0.50 98 1007.9
20260506182620 55 137 1.0 1.0 0.00 0.50 0.50 98 1007.8
20260506182116 55 146 2.0 2.0 0.00 0.50 0.50 98 1007.8
20260506181614 55 108 2.0 2.0 0.00 0.50 0.50 98 1007.8
20260506181111 55 112 2.0 2.0 0.00 0.50 0.50 98 1008.0
20260506180608 55 119 1.0 2.0 0.00 0.50 0.50 99 1007.8
20260506180104 55 135 0.0 1.0 0.00 0.50 0.50 99 1007.6
20260506175601 55 54 2.0 2.0 0.00 0.50 0.50 99 1007.6
20260506175057 54 113 2.0 2.0 0.00 0.50 0.50 99 1007.3
20260506174556 54 126 0.0 0.0 0.00 0.50 0.50 99 1007.6
20260506174051 54 142 2.0 2.0 0.00 0.50 0.50 99 1007.8
20260506173549 54 151 2.0 2.0 0.00 0.50 0.50 99 1007.7
20260506173046 54 129 2.0 2.0 0.00 0.50 0.50 99 1007.8
20260506172544 54 130 0.0 1.0 0.00 0.50 0.50 99 1007.9
20260506172040 54 148 1.0 2.0 0.00 0.50 0.50 99 1008.0
20260506171537 54 51 3.0 3.0 0.00 0.50 0.50 99 1008.1
20260506171035 54 128 0.0 0.0 0.00 0.50 0.50 99 1007.9
20260506170532 54 137 2.0 2.0 0.00 0.50 0.50 99 1008.1
20260506170024 53 101 2.0 2.0 0.00 0.50 0.50 99 1007.9
20260506165522 53 39 3.0 3.0 0.00 0.50 0.50 99 1007.8
20260506165018 54 280 4.0 5.0 0.00 0.50 0.50 99 1007.9
20260506164515 53 34 2.0 3.0 0.00 0.50 0.50 99 1007.8
20260506164012 53 189 1.0 2.0 0.00 0.50 0.50 99 1007.8
20260506163508 54 136 1.0 1.0 0.00 0.50 0.50 99 1007.5
20260506163004 53 198 3.0 3.0 0.00 0.50 0.50 99 1007.9
20260506162500 53 332 4.0 5.0 0.00 0.50 0.50 99 1007.7
20260506161957 53 142 0.0 1.0 0.00 0.50 0.50 99 1007.8
20260506161455 53 150 1.0 2.0 0.00 0.50 0.50 99 1007.8
20260506160952 53 124 1.0 1.0 0.00 0.50 0.50 99 1007.7
20260506160449 53 77 4.0 5.0 0.00 0.50 0.50 99 1007.6
20260506155946 53 124 2.0 2.0 0.00 0.50 0.50 99 1007.7
20260506155444 53 137 1.0 1.0 0.00 0.50 0.50 99 1007.2
20260506153611 54 126 1.0 1.0 0.00 0.50 0.50 99 1007.1
20260506153108 54 148 1.0 2.0 0.00 0.50 0.50 99 1007.2
20260506152605 54 165 2.0 2.0 0.00 0.50 0.50 99 1007.2
20260506152103 54 8 3.0 5.0 0.00 0.50 0.50 99 1006.9
20260506151601 54 113 2.0 2.0 0.00 0.50 0.50 99 1006.9
20260506151058 54 80 4.0 5.0 0.00 0.50 0.50 99 1006.8
20260506150554 54 53 3.0 3.0 0.00 0.50 0.50 99 1006.7
20260506150051 54 51 2.0 3.0 0.00 0.50 0.50 99 1006.9
20260506145548 55 122 1.0 1.0 0.00 0.50 0.50 99 1006.7
20260506145045 55 144 1.0 2.0 0.05 0.50 0.50 99 1006.7
20260506144542 55 339 4.0 5.0 0.05 0.50 0.50 99 1006.3
20260506144039 55 67 3.0 3.0 0.00 0.49 0.49 99 1006.4
20260506143537 56 128 2.0 2.0 0.00 0.49 0.49 99 1006.2
20260506143035 58 133 1.0 2.0 0.07 0.49 0.49 99 1006.0
20260506142532 59 23 3.0 5.0 0.07 0.49 0.49 99 1005.9
20260506142031 60 127 3.0 3.0 0.00 0.48 0.48 99 1005.8
20260506141528 60 126 0.0 0.0 0.05 0.48 0.48 99 1005.6
20260506141026 60 114 1.0 1.0 0.05 0.48 0.48 99 1005.5
20260506140523 60 121 1.0 1.0 0.05 0.48 0.48 99 1005.5
20260506140020 60 129 2.0 2.0 0.00 0.47 0.47 99 1005.4
20260506135517 60 126 1.0 1.0 0.00 0.47 0.47 99 1005.7
20260506135013 60 128 2.0 3.0 0.00 0.47 0.47 99 1005.6
20260506134510 60 120 1.0 2.0 0.07 0.47 0.47 99 1005.5
20260506134006 60 122 2.0 2.0 0.07 0.47 0.47 99 1005.5
20260506133503 60 132 0.0 0.0 0.00 0.46 0.46 99 1005.2
20260506133000 60 136 4.0 7.0 0.00 0.46 0.46 99 1005.1
20260506132457 60 127 2.0 2.0 0.00 0.46 0.46 99 1005.0
20260506131954 60 121 2.0 2.0 0.00 0.46 0.46 99 1004.7
20260506131451 60 128 1.0 1.0 0.00 0.46 0.46 99 1004.7
20260506130948 60 130 0.0 1.0 0.05 0.46 0.46 99 1004.6
20260506130444 60 121 3.0 3.0 0.05 0.46 0.46 99 1004.5
20260506125942 60 124 3.0 5.0 0.00 0.45 0.45 99 1004.4
20260506125440 60 121 1.0 1.0 0.00 0.45 0.45 99 1004.2
20260506124938 59 120 3.0 3.0 0.00 0.45 0.45 99 1004.4
20260506124435 59 129 2.0 2.0 0.00 0.45 0.45 99 1004.6
20260506123933 59 122 3.0 3.0 0.00 0.45 0.45 99 1004.1
20260506123431 59 118 2.0 2.0 0.00 0.45 0.45 99 1004.5
20260506122928 59 110 2.0 2.0 0.00 0.45 0.45 99 1004.1
20260506122425 59 127 4.0 5.0 0.00 0.45 0.45 99 1004.2
20260506121924 59 139 2.0 2.0 0.00 0.45 0.45 99 1004.1
20260506121420 59 116 1.0 1.0 0.00 0.45 0.45 99 1004.0
20260506120917 59 130 1.0 2.0 0.00 0.45 0.45 99 1004.0
20260506120415 59 126 1.0 2.0 0.00 0.45 0.45 99 1003.9
20260506115912 59 133 1.0 1.0 0.00 0.45 0.45 99 1004.0
20260506115410 59 127 2.0 2.0 0.00 0.45 0.45 99 1004.0
20260506114908 59 118 2.0 2.0 0.00 0.45 0.45 99 1003.8
20260506114405 59 128 1.0 2.0 0.00 0.45 0.45 99 1003.8
20260506113904 59 126 2.0 2.0 0.00 0.45 0.45 99 1003.8
20260506113401 59 145 2.0 2.0 0.00 0.45 0.45 99 1003.8
20260506112857 59 132 1.0 1.0 0.07 0.45 0.45 99 1003.2
20260506112355 59 128 2.0 3.0 0.07 0.45 0.45 99 1003.2
20260506111852 59 141 1.0 2.0 0.05 0.44 0.44 99 1003.4
20260506111350 58 126 0.0 1.0 0.05 0.44 0.44 99 1003.2
20260506110847 58 133 0.0 1.0 0.00 0.43 0.43 99 1003.3
20260506110344 58 130 1.0 1.0 0.00 0.43 0.43 99 1003.1
20260506105841 59 129 2.0 2.0 0.07 0.43 0.43 99 1003.4
20260506105337 58 137 1.0 1.0 0.12 0.43 0.43 99 1003.8
20260506104835 58 131 1.0 1.0 0.12 0.42 0.42 99 1003.5
20260506104332 58 123 0.0 0.0 0.07 0.41 0.41 99 1003.4
20260506103830 58 129 0.0 0.0 0.07 0.40 0.40 99 1003.5
20260506103327 58 128 0.0 1.0 0.07 0.40 0.40 99 1003.5
20260506102825 58 133 0.0 0.0 0.00 0.39 0.39 99 1003.5
20260506102322 58 93 1.0 2.0 0.05 0.39 0.39 99 1003.2
20260506101820 58 118 1.0 1.0 0.05 0.39 0.39 99 1003.0
20260506101315 58 128 0.0 1.0 0.00 0.38 0.38 99 1003.2
20260506100814 58 127 1.0 1.0 0.00 0.38 0.38 99 1003.2
20260506100312 58 121 0.0 0.0 0.00 0.38 0.38 99 1002.9
20260506095810 58 103 0.0 0.0 0.00 0.38 0.38 99 1002.8
20260506095306 58 153 2.0 2.0 0.00 0.38 0.38 99 1003.0
20260506094803 58 130 0.0 0.0 0.00 0.38 0.38 99 1002.5
20260506094302 58 138 1.0 1.0 0.00 0.38 0.38 99 1002.4
20260506093800 58 131 0.0 0.0 0.00 0.38 0.38 99 1002.3
20260506093256 58 131 1.0 1.0 0.07 0.38 0.38 99 1002.2
20260506092755 58 124 1.0 1.0 0.07 0.38 0.38 99 1002.4
20260506092252 58 131 0.0 0.0 0.17 0.37 0.37 99 1002.5
20260506091749 58 133 1.0 1.0 0.28 0.37 0.37 99 1002.7
20260506091246 58 131 1.0 2.0 0.28 0.35 0.35 99 1002.6
20260506090744 58 129 3.0 3.0 0.19 0.32 0.32 99 1002.4
20260506090241 58 131 3.0 3.0 0.19 0.30 0.30 99 1002.4
20260506085738 58 128 1.0 1.0 0.19 0.29 0.29 99 1002.5
20260506085234 58 129 2.0 5.0 0.12 0.27 0.27 99 1002.4
20260506084731 58 144 3.0 3.0 0.05 0.26 0.26 99 1002.5
20260506084227 58 120 3.0 3.0 0.00 0.25 0.25 99 1002.2
20260506083724 58 120 2.0 2.0 0.00 0.25 0.25 99 1002.3
20260506083222 58 125 3.0 3.0 0.00 0.25 0.25 98 1002.2
20260506082719 58 138 2.0 2.0 0.00 0.25 0.25 98 1002.3
20260506082214 58 92 4.0 6.0 0.00 0.25 0.25 98 1002.1
20260506081713 58 141 5.0 6.0 0.07 0.25 0.25 98 1002.2
20260506081210 58 148 4.0 5.0 0.12 0.25 0.25 98 1002.2
20260506080708 58 134 3.0 3.0 0.05 0.24 0.24 98 1002.4
20260506080204 58 125 4.0 5.0 0.07 0.23 0.23 98 1002.6
20260506073148 58 140 1.0 1.0 0.17 0.13 0.13 97 1002.6
20260506072644 58 132 1.0 2.0 0.05 0.11 0.11 98 1002.5
20260506072142 58 132 2.0 2.0 0.00 0.10 0.10 98 1002.6
20260506071640 58 122 3.0 3.0 0.00 0.10 0.10 98 1002.6
20260506071137 58 114 2.0 2.0 0.07 0.10 0.10 98 1002.7
20260506070634 58 108 4.0 6.0 0.07 0.10 0.10 98 1002.7
20260506070131 59 137 3.0 3.0 0.00 0.09 0.09 97 1002.9
20260506062109 62 131 1.0 2.0 0.14 0.04 0.04 86 1003.9
20260506061604 62 136 2.0 2.0 0.07 0.03 0.03 84 1004.0
20260506061102 63 124 2.0 2.0 0.00 0.02 0.02 82 1004.2
20260506060600 63 117 3.0 3.0 0.00 0.02 0.02 80 1004.5
20260506051029 59 131 2.0 2.0 0.00 0.01 0.01 97 1004.1
20260506050527 59 135 1.0 1.0 0.00 0.01 0.01 97 1004.1
20260506045017 59 131 0.0 1.0 0.00 0.01 0.01 94 1004.0
20260506044515 59 127 0.0 0.0 0.00 0.01 0.01 93 1004.0
20260506044012 59 129 0.0 0.0 0.07 0.01 0.01 92 1004.1
20260506043509 59 132 0.0 0.0 0.07 0.01 0.01 92 1004.4
20260506043007 59 131 0.0 0.0 0.00 0.00 0.00 90 1003.9
20260506042506 60 133 0.0 0.0 0.00 0.00 0.00 90 1003.9
20260506042004 61 132 0.0 0.0 0.00 0.00 0.00 89 1004.1
20260506041502 61 134 1.0 1.0 0.00 0.00 0.00 86 1004.0
20260506040959 61 155 2.0 3.0 0.00 0.00 0.00 87 1003.8
20260506040456 62 134 3.0 3.0 0.00 0.00 0.00 82 1004.2
20260506035952 59 130 5.0 8.0 0.00 0.01 0.01 94 1004.5
20260506035449 59 131 1.0 1.0 0.00 0.01 0.01 96 1004.4
20260506034946 59 131 0.0 0.0 0.00 0.01 0.01 95 1004.3
20260506034443 59 123 2.0 2.0 0.00 0.01 0.01 95 1004.4
20260506033940 59 136 2.0 2.0 0.00 0.01 0.01 95 1004.2
20260506033438 59 126 0.0 0.0 0.00 0.01 0.01 93 1004.0
20260506032934 59 132 1.0 1.0 0.05 0.01 0.01 92 1004.1
20260506032432 60 129 1.0 1.0 0.05 0.01 0.01 92 1004.4
20260506031928 60 126 1.0 1.0 0.00 0.00 0.00 91 1004.8
20260506031425 60 137 1.0 2.0 0.00 0.00 0.00 90 1004.5
20260506030923 60 130 0.0 0.0 0.00 0.00 0.00 89 1004.3
20260506030421 61 135 0.0 0.0 0.00 0.00 0.00 87 1004.6
20260506025917 61 132 0.0 0.0 0.00 0.00 0.00 86 1004.4
20260506025414 61 132 0.0 0.0 0.00 0.00 0.00 85 1004.5
20260506024911 61 132 0.0 0.0 0.00 0.00 0.00 84 1004.6
20260506024408 61 132 0.0 0.0 0.00 0.00 0.00 82 1004.7
20260506023904 61 132 0.0 0.0 0.00 0.00 0.00 82 1004.7
20260506023401 62 132 0.0 0.0 0.00 0.00 0.00 82 1004.7
20260506022857 62 132 0.0 0.0 0.00 0.00 0.00 83 1004.6
20260506022355 62 132 0.0 0.0 0.00 0.00 0.00 83 1004.6
20260506021853 62 132 0.0 0.0 0.00 0.00 0.00 81 1004.6
20260506021349 62 132 0.0 0.0 0.00 0.00 0.00 81 1004.7
20260506020846 62 132 0.0 0.0 0.00 0.00 0.00 81 1004.6
20260506020344 62 132 0.0 0.0 0.00 0.00 0.00 80 1004.7
20260506015842 62 132 0.0 0.0 0.00 0.00 0.00 80 1004.6
20260506015339 62 132 0.0 0.0 0.00 0.00 0.00 80 1004.5
20260506014836 62 132 0.0 0.0 0.00 0.00 0.00 80 1004.4
20260506014333 62 132 0.0 0.0 0.00 0.00 0.00 79 1004.4
20260506013829 63 132 0.0 0.0 0.00 0.00 0.00 79 1004.3
20260506013326 63 132 0.0 0.0 0.00 0.00 0.00 78 1004.5
20260506012823 63 132 0.0 0.0 0.00 0.00 0.00 79 1004.4
20260506012320 63 132 0.0 0.0 0.00 0.00 0.00 79 1004.6
20260506011817 63 135 0.0 0.0 0.00 0.00 0.00 79 1004.6
20260506011314 63 133 0.0 0.0 0.00 0.00 0.00 80 1004.6
20260506010811 63 133 0.0 0.0 0.00 0.00 0.00 79 1004.6
20260506010309 63 137 1.0 1.0 0.00 0.00 0.00 79 1004.7
20260506005806 63 136 0.0 1.0 0.00 0.00 0.00 80 1004.5
20260506005305 64 134 1.0 1.0 0.00 0.00 0.00 79 1004.7
20260506004758 64 134 2.0 2.0 0.00 0.00 0.00 78 1004.6
20260506004257 64 134 0.0 0.0 0.00 0.00 0.00 76 1004.4
20260506003752 64 134 0.0 0.0 0.00 0.00 0.00 75 1004.6
20260506003249 65 134 0.0 0.0 0.00 0.00 0.00 74 1004.7
20260506002745 65 134 0.0 0.0 0.00 0.00 0.00 71 1004.8
20260506002241 66 133 0.0 0.0 0.00 0.00 0.00 69 1004.8
20260506001737 66 134 0.0 0.0 0.00 0.00 0.00 68 1004.8